Winston-Salem, NC

8:46 PM EST on February 23, 2017 (GMT -0500)
Smith Reynolds

Weather History for KINT - September, 2013

Change the Weather History Date:

Monday, September 2, 2013

  Actual Average Record
Temperature  
Mean Temperature 77 °F -  
Max Temperature 87 °F 80 °F 97 °F (1993)
Min Temperature 68 °F 63 °F 47 °F (1967)
Cooling Degree Days 12    
Growing Degree Days 27 (Base 50)    
Moisture  
Dew Point 68 °F    
Average Humidity 85    
Maximum Humidity 100    
Minimum Humidity 57    
Precipitation  
Precipitation 0.00 in - - ()
Sea Level Pressure  
Sea Level Pressure 29.88 in    
Wind  
Wind Speed 2 mph (SW)    
Max Wind Speed 7 mph    
Max Gust Speed -    
Visibility 5 miles    
Events Fog    
Averages and records for this station are not official NWS values.
T = Trace of Precipitation, MM = Missing Value Source: NWS Daily Summary

Daily Weather History Graph

Daily Weather History Graph

Search for Another Location

Airport or City:

Trip Planner

Search our weather history database for the weather conditions in past years. The results will help you decide how hot, cold, wet, or windy it might be!

Date:

Astronomy

Sep. 02, 2013 Rise Set
Actual Time 6:53 AM EDT 7:46 PM EDT
Civil Twilight 6:27 AM EDT 8:12 PM EDT
Nautical Twilight 5:56 AM EDT 8:43 PM EDT
Astronomical Twilight 5:24 AM EDT 9:15 PM EDT
Moon 4:12 AM EDT (9/2) 5:57 PM EDT (9/2)
Length of Visible Light 13h 45m
Length of Day
12h 53m
Waning Crescent, 8% of the Moon is Illuminated
Sep 2
Waning Crescent
Sep 5
New
Sep 12
First Quarter
Sep 19
Full
Sep 26
Last Quarter

Hourly Weather History & Observations

Time (EDT) Temp. Heat Index Dew Point Humidity Pressure Visibility Wind Dir Wind Speed Gust Speed Precip Events Conditions
12:54 AM 70.0 °F - 68.0 °F 93% 29.87 in 9.0 mi South 3.5 mph - N/A   Clear
1:54 AM 69.1 °F - 68.0 °F 96% 29.86 in 4.0 mi Calm Calm - N/A   Partly Cloudy
2:06 AM 69.8 °F - 68.0 °F 94% 29.89 in 3.0 mi Calm Calm - N/A   Mostly Cloudy
2:13 AM 69.8 °F - 68.0 °F 94% 29.89 in 2.0 mi Calm Calm - N/A   Mostly Cloudy
2:21 AM 69.8 °F - 68.0 °F 94% 29.89 in 4.0 mi Calm Calm - N/A   Scattered Clouds
2:43 AM 69.8 °F - 68.0 °F 94% 29.89 in 6.0 mi Calm Calm - N/A   Mostly Cloudy
2:54 AM 69.1 °F - 66.9 °F 93% 29.86 in 8.0 mi Calm Calm - N/A   Overcast
3:54 AM 69.1 °F - 68.0 °F 96% 29.86 in 4.0 mi SW 4.6 mph - N/A   Overcast
4:29 AM 69.8 °F - 68.0 °F 94% 29.89 in 2.5 mi SW 3.5 mph - N/A   Overcast
4:46 AM 68.0 °F - 66.2 °F 94% 29.89 in 1.0 mi West 3.5 mph - N/A   Overcast
4:54 AM 68.0 °F - 68.0 °F 100% 29.86 in 0.8 mi Calm Calm - N/A   Mist
5:05 AM 68.0 °F - 66.2 °F 94% 29.89 in 1.0 mi WSW 3.5 mph - N/A   Mist
5:16 AM 68.0 °F - 66.2 °F 94% 29.89 in 0.8 mi Calm Calm - N/A   Mist
5:54 AM 68.0 °F - 66.9 °F 96% 29.85 in 0.5 mi Calm Calm - N/A Fog Fog
6:54 AM 68.0 °F - 66.9 °F 96% 29.86 in 0.5 mi South 3.5 mph - N/A Fog Fog
7:08 AM 68.0 °F - 66.2 °F 94% 29.89 in 0.2 mi Calm Calm - N/A Fog Fog
7:15 AM 68.0 °F - 66.2 °F 94% 29.90 in 0.2 mi Calm Calm - N/A Fog Fog
7:49 AM 68.0 °F - 68.0 °F 100% 29.90 in 0.2 mi Calm Calm - N/A Fog Fog
7:54 AM 68.0 °F - 66.9 °F 96% 29.88 in 0.2 mi Calm Calm - N/A Fog Fog
8:26 AM 68.0 °F - 68.0 °F 100% 29.91 in 0.5 mi Calm Calm - N/A Fog Fog
8:39 AM 69.8 °F - 68.0 °F 94% 29.92 in 0.2 mi West 3.5 mph - N/A Fog Fog
8:46 AM 69.8 °F - 68.0 °F 94% 29.92 in 0.5 mi West 3.5 mph - N/A Fog Fog
8:54 AM 69.1 °F - 68.0 °F 96% 29.89 in 1.5 mi West 3.5 mph - N/A   Overcast
9:02 AM 69.8 °F - 69.8 °F 100% 29.92 in 2.5 mi WSW 3.5 mph - N/A   Overcast
9:10 AM 69.8 °F - 69.8 °F 100% 29.93 in 4.0 mi West 3.5 mph - N/A   Overcast
9:54 AM 73.9 °F - 69.1 °F 85% 29.91 in 10.0 mi Calm Calm - N/A   Mostly Cloudy
10:06 AM 73.4 °F - 69.8 °F 88% 29.94 in 10.0 mi Calm Calm - N/A   Scattered Clouds
10:54 AM 75.9 °F - 70.0 °F 82% 29.91 in 10.0 mi Calm Calm - N/A   Clear
11:54 AM 80.1 °F 83.2 °F 70.0 °F 71% 29.91 in 10.0 mi Calm Calm - N/A   Clear
12:54 PM 82.9 °F 85.4 °F 66.9 °F 58% 29.89 in 10.0 mi West 6.9 mph - N/A   Clear
1:54 PM 82.9 °F 85.8 °F 68.0 °F 60% 29.88 in 10.0 mi Variable 3.5 mph - N/A   Clear
2:54 PM 86.0 °F 90.1 °F 69.1 °F 57% 29.86 in 10.0 mi Calm Calm - N/A   Scattered Clouds
3:54 PM 86.0 °F 90.1 °F 69.1 °F 57% 29.83 in 10.0 mi Variable 3.5 mph - N/A   Mostly Cloudy
4:54 PM 84.9 °F 88.2 °F 68.0 °F 57% 29.83 in 10.0 mi Variable 3.5 mph - N/A   Partly Cloudy
5:54 PM 84.9 °F 88.8 °F 69.1 °F 59% 29.82 in 10.0 mi SSW 4.6 mph - N/A   Clear
6:54 PM 84.0 °F 87.8 °F 69.1 °F 61% 29.82 in 10.0 mi Variable 3.5 mph - N/A   Clear
7:54 PM 81.0 °F 84.4 °F 70.0 °F 69% 29.83 in 10.0 mi South 3.5 mph - N/A   Clear
8:54 PM 80.1 °F 83.2 °F 70.0 °F 71% 29.86 in 10.0 mi Calm Calm - N/A   Clear
9:54 PM 78.1 °F - 70.0 °F 76% 29.85 in 10.0 mi Calm Calm - N/A   Clear
10:54 PM 78.1 °F - 70.0 °F 76% 29.86 in 10.0 mi SW 3.5 mph - N/A   Clear
11:54 PM 78.1 °F - 70.0 °F 76% 29.84 in 10.0 mi SW 3.5 mph - N/A   Clear